Location: ????????
(55.0808°N, 38.5463°E)
Time: 18:59:17
(UTC+00:00)

NOSS 3-1 (A) - Pass Details

Date: 14 April 2024
Orbit: 660 x 1550 km, 63.4° (Epoch: 15 May)

Event Time Altitude Azimuth Distance (km) Brightness Sun altitude
Rises 01:26:43 0° 308° (NW) 3,665 6.3 -8.3°
Reaches altitude 10° 01:29:04 10° 309° (NW) 2,830 5.7 -8.1°
Maximum altitude 01:35:55 87° 38° (NE) 1,212 4.1 -7.2°
Drops below altitude 10° 01:44:25 10° 130° (SE) 3,472 6.7 -6.1°
Sets 01:47:34 0° 131° (SE) 4,540 7.3 -5.7°
